WL7CLI Weather Reports


time (UTC)temp
F
wind
direction
speed
knots
gust
knots
rain 1hr
in
rain 24hr
in
rain mn
in
humidity
%
barometer
mb
20260906165821 80 121 9.6 16.5 0.00 0.00 0.00 81 1017.7
20260906162821 80 109 11.3 23.5 0.00 0.00 0.00 80 1017.8
20260906155821 81 109 1.7 16.5 0.00 0.00 0.00 81 1018.0
20260906152821 80 132 13.0 16.5 0.00 0.00 0.00 80 1018.3
20260906145821 78 121 5.2 18.2 0.00 0.00 0.00 81 1018.4
20260906142821 77 121 1.7 16.5 0.00 0.00 0.00 84 1018.6
20260906135822 75 122 7.0 13.0 0.00 0.00 0.00 88 1018.9
20260906132821 0 0 0.0 0.0 0.00 0.00 0.00 100 1016.0
20260906125821 0 0 0.0 0.0 0.00 0.00 0.00 100 1015.9
20260906122821 0 0 0.0 0.0 0.00 0.00 0.00 100 1015.1
20260906115821 0 0 0.0 0.0 0.00 0.00 0.00 100 1014.3
20260906105811 75 122 0.0 0.0 0.00 0.00 0.00 90 1016.9
20260906102811 75 122 0.0 0.0 0.00 0.00 0.00 90 1017.0
20260906095811 75 122 0.0 0.0 0.00 0.00 0.00 90 1017.0
20260906092811 75 122 0.0 0.0 0.00 0.00 0.00 90 1016.7
20260906085811 75 122 0.0 0.0 0.00 0.00 0.00 90 1016.3
20260906082811 75 122 0.0 0.0 0.00 0.00 0.00 90 1016.3
20260906075811 75 122 0.0 0.0 0.00 0.00 0.00 90 1016.0
20260906072811 75 122 0.0 0.0 0.00 0.00 0.00 90 1016.2
20260906065811 75 122 0.0 0.0 0.00 0.00 0.00 90 1016.3
20260906062811 75 122 0.0 0.0 0.00 0.00 0.00 90 1016.4
20260906055811 75 122 0.0 0.0 0.00 0.00 0.00 90 1016.1
20260906052811 75 122 0.0 0.0 0.00 0.00 0.00 90 1016.1
20260906045811 75 122 0.0 0.0 0.00 0.00 0.00 90 1016.0
20260906042811 75 122 0.0 0.0 0.00 0.00 0.00 90 1015.8
20260906035811 75 122 0.0 0.0 0.00 0.00 0.00 90 1015.6
20260906032811 75 122 0.0 0.0 0.00 0.00 0.00 90 1015.4
20260906025811 75 122 0.0 0.0 0.00 0.00 0.00 90 1015.2
20260906022811 75 122 0.0 0.0 0.00 0.00 0.00 90 1014.7
20260906015811 75 122 0.0 0.0 0.00 0.00 0.00 90 1014.4
20260906012811 75 122 0.0 0.0 0.00 0.00 0.00 90 1014.2
20260906005811 75 122 0.0 0.0 0.00 0.00 0.00 90 1013.9
20260906002811 75 122 0.0 0.0 0.00 0.00 0.00 90 1013.7
20260905235811 75 122 0.0 0.0 0.00 0.00 0.00 90 1013.7
20260905232811 75 122 0.0 0.0 0.00 0.00 0.00 90 1013.5
20260905225811 75 122 0.0 0.0 0.00 0.00 0.00 90 1013.4
20260905222811 75 122 0.0 0.0 0.00 0.00 0.00 90 1013.3
20260905215811 75 122 0.0 0.0 0.00 0.00 0.00 90 1013.4
20260905212811 75 122 0.0 0.0 0.00 0.00 0.00 90 1013.7
20260905205811 75 122 0.0 0.0 0.00 0.00 0.00 90 1013.2
20260905202811 75 122 0.0 0.0 0.00 0.00 0.00 90 1013.6
20260905195811 75 122 0.0 0.0 0.00 0.00 0.00 90 1013.9
20260905192811 75 122 0.0 0.0 0.00 0.00 0.00 90 1014.3
20260905185811 75 122 0.0 0.0 0.00 0.00 0.00 90 1014.9
20260905182811 75 122 0.0 0.0 0.00 0.00 0.00 90 1015.2
20260905175811 75 122 0.0 0.0 0.00 0.00 0.00 90 1015.3
20260905172811 75 122 0.0 0.0 0.00 0.00 0.00 90 1015.5